IRIDIUM 47 DEB, 40251

Orbit data source: Space-Track

IRIDIUM 47 DEB, 40251 is space debris in LEO originally from a launch on Sat, 20 Dec 1997 UTC launched from the Air Force Western Test Range (AFWTR). Debris objects in space refer to the collection of defunct objects orbiting the Earth. Examples of debris include non-operational satellites, rocket bodies, and fragments generated from explosions, collisions, or faulty payload assembly.

Loading next visibility...
Identifier
40251, 1997-082L
Orbit
LEO
Country
Flag of USUS
Related business
Manufacturer
Unknown
Mission
Spacecraft
Bus & Motor
Unknown
Mass
Unknown
Launch date (UTC)
1997-12-20 (28 years ago)
Launch vehicle
Unknown
Launch site
Air Force Western Test Range (AFWTR)
Object type
Payload
Rocket body
Debris
Shape & HBR
Unknown shape, 0.1 m
Radar Cross Section
Small (<0.1 m²)

Expand to show TLE details & history
Last TLE update: 12 hours ago

TLE from 12 hours ago
0 IRIDIUM 47 DEB
1 40251U 97082L   25348.31711069  .00008253  00000-0  29237-2 0  9991
2 40251  86.3230  94.9821 0121822  28.7793 332.0049 14.30346211575273
Epoch: 2025-12-14T07:36Z
TLE epoch observation values (Epoch: 2025-12-14T07:36:38.363Z)
Latitude
0.00002°
Longitude
-102.40951°
Altitude
716.728 km
Speed
7.537 km/s
True Right ascension
06h 19m 55s
True Declination
0° 00' 00"
Sunlit
Object was in full shadow at epoch
Visualization orbit readout
Latitude
Unknown
Longitude
Unknown
Altitude
Unknown
Speed
Unknown
Apparent Right ascension
Unknown
Apparent Declination
Unknown
Sunlit
N/A
Visualization observer readout
Local Sidereal Time
18:12:03
Azimuth
Unknown
Elevation
Unknown
Doppler factor
Unknown
Orbital elements
Apogee altitude
874.838 km
Perigee altitude
700.251 km
Semi-major axis
7,165.682 km
Eccentricity
0.01218
Inclination
86.323°
RAAN
94.9821°
Arg. of periapsis
28.7793°
True anomaly
331.34072°
Mean anomaly
332.0049°
Eccentric anomaly
331.67371°
Mean motion
3.57814 °/min
Orbital period
100.61 mins
BSTAR
0.0029237
Loading maneuver chart data...
Computing Atmospheric mass density...

Documentation

Showing up to 5 results
|